Regional Weather Roundup
Issued by NWS

Home | Current Version | Previous Version | Text Only | Print | Product List | Glossary On
Versions: 1 2 3 4 5 6 7 8 9 10 11 12 13 14 15 16 17 18 19 20 21 22 23 24 25 26 27 28 29 30 31 32 33 34 35 36 37 38 39 40 41 42 43 44 45 46 47 48 49 50
000
ASUS44 KBMX 310510
RWRAL

ALABAMA REGIONAL WEATHER ROUNDUP
NATIONAL WEATHER SERVICE BIRMINGHAM AL
1200 AM CDT FRI JUL 31 2015

NOTE: "FAIR" INDICATES FEW OR NO CLOUDS BELOW 12,000 FEET
WITH NO SIGNIFICANT WEATHER AND/OR OBSTRUCTIONS TO VISIBILITY.

THE REMARK "TC" DENOTES TEMPERATURE IN DEGREES CELSIUS.

ALZ001>011-014-016>018-020-310600-
NORTH ALABAMA

CITY           SKY/WX    TMP DP  RH WIND       PRES   REMARKS
MUSCLE SHOALS  CLEAR     75  63  66 N8        30.07F
HUNTSVILLE     CLEAR     74  63  68 CALM      30.05F
DECATUR        CLEAR     68  64  87 CALM      30.06S
HALEYVILLE     FAIR      72  63  73 N6        30.09S
GADSDEN        CLEAR     75  61  60 N9        30.01S
$$

ALZ012-013-022-023-030>036-040>044-310600-
WEST CENTRAL ALABAMA

CITY           SKY/WX    TMP DP  RH WIND       PRES   REMARKS
TUSCALOOSA     CLEAR     79  64  60 N8        30.00S
$$

ALZ015-024>027-033>036-040>044-310600-
CENTRAL ALABAMA

CITY           SKY/WX    TMP DP  RH WIND       PRES   REMARKS
BIRMINGHAM     CLEAR     77  63  61 N7        30.03F
MONTGOMERY     MOCLDY    79  75  87 NW6       29.93F
SHELBY CO ARPT CLEAR     80  62  54 N6        29.99F
MAXWELL AFB    PTCLDY    79  76  90 NW5       29.92F
GREENVILLE     FAIR      80  72  76 VRB3      29.93F
$$

ALZ019-021-028-029-037-038-045>048-310600-
EAST CENTRAL ALABAMA

CITY           SKY/WX    TMP DP  RH WIND       PRES   REMARKS
ANNISTON       CLEAR     80  64  58 NE10G17   29.99F
ALEXANDER CITY CLEAR     80  69  69 N7        29.97F
AUBURN         CLEAR     79  79 100 CALM      29.97F
$$

ALZ051>064-310600-
SOUTHWEST ALABAMA

CITY           SKY/WX    TMP DP  RH WIND       PRES   REMARKS
MOBILE         CLOUDY    75  74  96 NW3       29.95F
BROOKLEY FIELD CLOUDY    78  74  87 N6        29.96F
EVERGREEN      CLOUDY    77  74  90 CALM      29.94F
$$

ALZ049-050-065>069-310600-
SOUTHEAST ALABAMA

CITY           SKY/WX    TMP DP  RH WIND       PRES   REMARKS
DOTHAN         MOCLDY    79  75  87 NW3       29.96F
OZARK          MOCLDY    77  76  96 VRB1      29.92F
TROY           PTCLDY    77  74  90 CALM      29.94F
EUFAULA        FAIR      78  77  96 CALM      29.92F FOG
$$



USA.gov is the U.S. government's official web portal to all federal, state and local government web resources and services.